Tracking 23099 objects as of 13-May-2021
HD Live streaming from Space Station
objects crossing your sky now

RAX-2

Track RAX-2 now!
10-day predictions
RAX-2 is classified as:


NORAD ID: 37853
Int'l Code: 2011-061D
Perigee: 443.8 km
Apogee: 672.1 km
Inclination: 101.7 °
Period: 95.7 minutes
Semi major axis: 6928 km
RCS: 0.0758 m2 (small)
Launch date: October 28, 2011
Source: United States (US)
Launch site: AIR FORCE WESTERN TEST RANGE (AFWTR)

Uplink (MHz):
Downlink (MHz): 437.345
Beacon (MHz):
Mode: 9600bps GMSK
Call sign:
Status: Inactive

aabbcc
Your satellite tracking list
Your tracking list is empty




NASA's NSSDC Master Catalog

Two Line Element Set (TLE):
1 37853U 11061D   21132.67617419  .00000704  00000-0  44871-4 0  9994
2 37853 101.7139  25.4308 0164702 197.1806 162.3791 15.05226079520344
Source of the keplerian elements: AFSPC